Погода в Веллингтоне

Новая Зеландия     41°17′50″S   174°46′33″E
темп.,
°C
ветер,
м/с
пор.,
м/с
влажн.,
%
обл.,
%
осадки,
мм/ч
давл.,
гПа
погр.,
м
3 марта, ср
ср301:00+17с8148859 0.4 1005609
04:00+17ссз91589100 0.1 1004758
07:00+17ссз101588100 0.2 1003803
10:00+17ссз101485100 0.0 1003747
13:00+18ссз91482100 0.1 1002794
16:00+19ссз9147878 0.0 1001730
19:00+18ссз9158540 0.0 1001640
22:00+18ссз915888 0.0 1002662
4 марта, чт
чт401:00+17ссз8148531 0.9 1002609
04:00+17ссз8138822 0.0 1001612
07:00+16ссз7128661 0.0 1001642
10:00+17ссз71178100 0.0 1001624
13:00+18ссз9127272 0.0 1000798
16:00+18ссз9127116 0.0 998719
19:00+17ссз8136749 0.0 998587
22:00+17зсз10146322 0.1 999575
5 марта, пт
пт501:00+16сз8126813 0.1 999752
04:00+15сз913670 0.0 998863
07:00+15сз912660 0.0 999921
10:00+15сз1014660 0.0 999968
13:00+17сз1217671 0.0 10001436
16:00+17ссз12166856 0.1 9981250
19:00+16сз11167428 0.1 9971075
22:00+16ссз1116740 0.0 9981213
6 марта, сб
сб601:00+16ссз11177618 0.1 9971287
04:00+16с12187776 0.1 9961273
07:00+15с11178888 1.4 9961141
10:00+16ссз9128796 2.8 995719
13:00+17ссз8127486 2.8 9951080
16:00+18ссз9147110 0.0 9941157
19:00+16сз812735 0.0 9931002
22:00+16сз1013740 0.0 9941068
7 марта, вс
вс701:00+16сз812760 0.4 994962
04:00+15сз7118336 1.0 992788
07:00+14ссз358468 3.8 992295
10:00+13ююв6990100 6.1 993451
13:00+13ююз91289100 9.1 995813
16:00+14ю101482100 4.5 9971103
19:00+14ю9127261 4.6 999989
22:00+14ююв4774100 0.1 1002890